AZU6028 SBSP-SBCT

Flight info

Callsign AZU6028
Flight time 0h 34m
Altitude 30000
Route SOVSI UZ85 RAXIT
Aircraft E195/M-SDE3GILORVW/S

Departure

Time 2026-05-08 00:42
Airport Congonhas–Deputado Freitas Nobre Airport (SBSP)

Arrival

Time 2026-05-08 01:16
Airport Curitiba-Afonso Pena International Airport (SBCT)
Time Latitude Longitude Altitude Speed Heading
2026-05-08 00:14 -23.62856 -46.65733 2613 ft 0 kts 237°
2026-05-08 00:30 -23.62851 -46.65724 2614 ft 2 kts 237°
2026-05-08 00:31 -23.62845 -46.65715 2614 ft 2 kts 234°
2026-05-08 00:31 -23.62833 -46.65705 2614 ft 2 kts 200°
2026-05-08 00:31 -23.62819 -46.65703 2614 ft 2 kts 174°
2026-05-08 00:31 -23.62806 -46.65707 2613 ft 0 kts 151°
2026-05-08 00:32 -23.62801 -46.65710 2613 ft 0 kts 146°
2026-05-08 00:32 -23.62799 -46.65712 2613 ft 0 kts 147°
2026-05-08 00:35 -23.62801 -46.65710 2613 ft 0 kts 147°
2026-05-08 00:35 -23.62814 -46.65701 2613 ft 3 kts 147°
2026-05-08 00:35 -23.62846 -46.65678 2614 ft 7 kts 146°
2026-05-08 00:35 -23.62891 -46.65635 2616 ft 10 kts 125°
2026-05-08 00:36 -23.62940 -46.65563 2617 ft 12 kts 141°
2026-05-08 00:36 -23.63014 -46.65514 2618 ft 12 kts 168°
2026-05-08 00:36 -23.63110 -46.65483 2619 ft 16 kts 146°
2026-05-08 00:36 -23.63217 -46.65406 2621 ft 18 kts 146°
2026-05-08 00:37 -23.63324 -46.65329 2621 ft 13 kts 148°
2026-05-08 00:37 -23.63404 -46.65274 2621 ft 14 kts 148°
2026-05-08 00:37 -23.63440 -46.65251 2621 ft 3 kts 148°
2026-05-08 00:38 -23.63451 -46.65244 2621 ft 0 kts 148°
2026-05-08 00:40 -23.63458 -46.65239 2621 ft 1 kts 148°
2026-05-08 00:40 -23.63474 -46.65229 2621 ft 3 kts 148°
2026-05-08 00:40 -23.63503 -46.65194 2621 ft 8 kts 104°
2026-05-08 00:40 -23.63477 -46.65126 2621 ft 12 kts 56°
2026-05-08 00:41 -23.63420 -46.65122 2621 ft 9 kts 327°
2026-05-08 00:41 -23.63405 -46.65132 2621 ft 0 kts 327°
2026-05-08 00:41 -23.63350 -46.65170 2621 ft 41 kts 328°
2026-05-08 00:41 -23.62863 -46.65510 2617 ft 121 kts 326°
2026-05-08 00:42 -23.61980 -46.66130 2709 ft 171 kts 328°
2026-05-08 00:42 -23.61015 -46.66944 3327 ft 184 kts 312°
2026-05-08 00:42 -23.60404 -46.68163 4269 ft 181 kts 299°
2026-05-08 00:42 -23.59869 -46.69451 4817 ft 196 kts 298°
2026-05-08 00:43 -23.59307 -46.70883 5351 ft 212 kts 297°
2026-05-08 00:43 -23.58737 -46.72392 5988 ft 222 kts 296°
2026-05-08 00:43 -23.58146 -46.73989 6667 ft 233 kts 296°
2026-05-08 00:43 -23.57823 -46.75747 7305 ft 247 kts 268°
2026-05-08 00:44 -23.58497 -46.77602 7530 ft 280 kts 240°
2026-05-08 00:44 -23.59584 -46.79341 7504 ft 273 kts 241°
2026-05-08 00:44 -23.60673 -46.81140 7530 ft 292 kts 241°
2026-05-08 00:44 -23.61792 -46.83016 7516 ft 291 kts 242°
2026-05-08 00:45 -23.63094 -46.84690 7511 ft 298 kts 218°
2026-05-08 00:45 -23.64994 -46.85798 7840 ft 317 kts 209°
2026-05-08 00:45 -23.66987 -46.86844 8734 ft 317 kts 209°
2026-05-08 00:45 -23.68950 -46.87870 9782 ft 312 kts 209°
2026-05-08 00:46 -23.70901 -46.88891 10687 ft 311 kts 208°
2026-05-08 00:46 -23.72894 -46.89933 11355 ft 321 kts 208°
2026-05-08 00:46 -23.74950 -46.91008 11878 ft 335 kts 208°
2026-05-08 00:46 -23.76889 -46.92448 12368 ft 343 kts 231°
2026-05-08 00:47 -23.78291 -46.94542 13000 ft 349 kts 239°
2026-05-08 00:47 -23.79687 -46.96803 13741 ft 355 kts 239°
2026-05-08 00:47 -23.81059 -46.99031 14556 ft 357 kts 239°
2026-05-08 00:47 -23.82440 -47.01276 15406 ft 358 kts 239°
2026-05-08 00:48 -23.83837 -47.03548 16199 ft 361 kts 239°
2026-05-08 00:48 -23.85235 -47.05823 16938 ft 364 kts 239°
2026-05-08 00:48 -23.86646 -47.08121 17629 ft 367 kts 239°
2026-05-08 00:48 -23.88072 -47.10444 18357 ft 369 kts 239°
2026-05-08 00:49 -23.89505 -47.12780 19124 ft 369 kts 239°
2026-05-08 00:49 -23.90931 -47.15105 19914 ft 368 kts 239°
2026-05-08 00:49 -23.92351 -47.17421 20666 ft 367 kts 239°
2026-05-08 00:49 -23.93772 -47.19740 21361 ft 367 kts 239°
2026-05-08 00:50 -23.95197 -47.22066 22018 ft 368 kts 239°
2026-05-08 00:50 -23.96627 -47.24404 22637 ft 369 kts 239°
2026-05-08 00:50 -23.98054 -47.26736 23233 ft 371 kts 239°
2026-05-08 00:50 -23.99499 -47.29098 23753 ft 375 kts 239°
2026-05-08 00:51 -24.00962 -47.31493 24293 ft 378 kts 239°
2026-05-08 00:51 -24.02433 -47.33900 24811 ft 381 kts 239°
2026-05-08 00:51 -24.03910 -47.36319 25341 ft 384 kts 239°
2026-05-08 00:51 -24.05391 -47.38746 25869 ft 386 kts 239°
2026-05-08 00:52 -24.06884 -47.41193 26365 ft 388 kts 239°
2026-05-08 00:52 -24.08388 -47.43658 26872 ft 390 kts 239°
2026-05-08 00:52 -24.09924 -47.46077 27326 ft 394 kts 233°
2026-05-08 00:52 -24.11872 -47.48281 27766 ft 401 kts 223°
2026-05-08 00:53 -24.14177 -47.50054 28195 ft 408 kts 213°
2026-05-08 00:53 -24.16678 -47.51581 28634 ft 410 kts 214°
2026-05-08 00:53 -24.19116 -47.53196 29037 ft 412 kts 215°
2026-05-08 00:53 -24.21548 -47.54861 29487 ft 414 kts 216°
2026-05-08 00:54 -24.23995 -47.56554 29908 ft 409 kts 216°
2026-05-08 00:54 -24.26354 -47.58192 29925 ft 396 kts 216°
2026-05-08 00:54 -24.28654 -47.59792 29942 ft 387 kts 216°
2026-05-08 00:55 -24.33228 -47.62979 29946 ft 391 kts 216°
2026-05-08 00:55 -24.37835 -47.66231 29950 ft 391 kts 217°
2026-05-08 00:56 -24.42406 -47.69500 29950 ft 389 kts 223°
2026-05-08 00:56 -24.46357 -47.73503 29943 ft 387 kts 227°
2026-05-08 00:57 -24.50356 -47.77586 29955 ft 399 kts 227°
2026-05-08 00:57 -24.52407 -47.79678 29957 ft 411 kts 227°
2026-05-08 00:57 -24.54521 -47.81834 29959 ft 424 kts 227°
2026-05-08 00:57 -24.56705 -47.84063 29756 ft 432 kts 226°
2026-05-08 00:58 -24.58915 -47.86317 29282 ft 428 kts 227°
2026-05-08 00:58 -24.61071 -47.88519 28818 ft 424 kts 226°
2026-05-08 00:58 -24.63237 -47.90733 28349 ft 421 kts 227°
2026-05-08 00:58 -24.65362 -47.92906 27890 ft 418 kts 227°
2026-05-08 00:59 -24.67470 -47.95063 27426 ft 416 kts 227°
2026-05-08 00:59 -24.69611 -47.97253 26955 ft 416 kts 227°
2026-05-08 00:59 -24.71708 -47.99401 26492 ft 414 kts 227°
2026-05-08 00:59 -24.73820 -48.01564 26041 ft 411 kts 227°
2026-05-08 01:00 -24.75905 -48.03701 25582 ft 409 kts 227°
2026-05-08 01:00 -24.77979 -48.05827 25127 ft 406 kts 227°
2026-05-08 01:00 -24.80049 -48.07951 24676 ft 404 kts 227°
2026-05-08 01:00 -24.82085 -48.10042 24237 ft 401 kts 227°
2026-05-08 01:01 -24.84141 -48.12152 23789 ft 400 kts 227°
2026-05-08 01:01 -24.86151 -48.14217 23361 ft 396 kts 227°
2026-05-08 01:01 -24.88174 -48.16297 22925 ft 395 kts 227°
2026-05-08 01:01 -24.90195 -48.18375 22495 ft 393 kts 227°
2026-05-08 01:02 -24.92186 -48.20424 22072 ft 392 kts 227°
2026-05-08 01:02 -24.94166 -48.22462 21657 ft 391 kts 227°
2026-05-08 01:02 -24.96154 -48.24509 21237 ft 391 kts 227°
2026-05-08 01:02 -24.98147 -48.26563 20833 ft 389 kts 227°
2026-05-08 01:03 -25.00109 -48.28587 20852 ft 387 kts 227°
2026-05-08 01:03 -25.02075 -48.30621 20859 ft 389 kts 227°
2026-05-08 01:03 -25.04096 -48.32705 20166 ft 401 kts 227°
2026-05-08 01:03 -25.06128 -48.34802 19120 ft 400 kts 227°
2026-05-08 01:04 -25.08145 -48.36883 18661 ft 389 kts 227°
2026-05-08 01:04 -25.10093 -48.38897 18212 ft 380 kts 227°
2026-05-08 01:04 -25.12026 -48.40897 17785 ft 378 kts 227°
2026-05-08 01:04 -25.13865 -48.42977 17436 ft 379 kts 231°
2026-05-08 01:05 -25.15647 -48.45101 17014 ft 380 kts 231°
2026-05-08 01:05 -25.17463 -48.47259 16588 ft 379 kts 231°
2026-05-08 01:05 -25.19253 -48.49385 16152 ft 378 kts 231°
2026-05-08 01:05 -25.21049 -48.51519 15716 ft 374 kts 231°
2026-05-08 01:06 -25.22809 -48.53610 15317 ft 372 kts 231°
2026-05-08 01:06 -25.24575 -48.55710 14972 ft 368 kts 231°
2026-05-08 01:06 -25.26301 -48.57765 14924 ft 370 kts 231°
2026-05-08 01:06 -25.28068 -48.59869 14544 ft 371 kts 231°
2026-05-08 01:07 -25.29809 -48.61941 14141 ft 368 kts 231°
2026-05-08 01:07 -25.31547 -48.64012 13743 ft 367 kts 231°
2026-05-08 01:07 -25.33303 -48.66105 13325 ft 364 kts 231°
2026-05-08 01:07 -25.35029 -48.68164 12932 ft 361 kts 232°
2026-05-08 01:08 -25.36725 -48.70188 12544 ft 359 kts 232°
2026-05-08 01:08 -25.38428 -48.72220 12140 ft 356 kts 232°
2026-05-08 01:08 -25.40095 -48.74211 11731 ft 353 kts 232°
2026-05-08 01:08 -25.41746 -48.76182 11357 ft 344 kts 232°
2026-05-08 01:09 -25.43378 -48.78132 10998 ft 336 kts 233°
2026-05-08 01:09 -25.44943 -48.80002 10667 ft 326 kts 233°
2026-05-08 01:09 -25.46453 -48.81810 10374 ft 317 kts 233°
2026-05-08 01:09 -25.47942 -48.83591 10034 ft 310 kts 233°
2026-05-08 01:10 -25.49398 -48.85336 9707 ft 303 kts 233°
2026-05-08 01:10 -25.50814 -48.87033 9390 ft 298 kts 233°
2026-05-08 01:10 -25.52216 -48.88714 9072 ft 297 kts 234°
2026-05-08 01:10 -25.53617 -48.90394 8754 ft 297 kts 233°
2026-05-08 01:11 -25.55016 -48.92073 8437 ft 297 kts 233°
2026-05-08 01:11 -25.56434 -48.93774 8106 ft 296 kts 234°
2026-05-08 01:11 -25.57834 -48.95454 7787 ft 296 kts 233°
2026-05-08 01:11 -25.59294 -48.97063 7543 ft 295 kts 230°
2026-05-08 01:12 -25.60754 -48.98632 7233 ft 295 kts 230°
2026-05-08 01:12 -25.62239 -49.00227 6909 ft 293 kts 230°
2026-05-08 01:12 -25.63434 -49.01968 6584 ft 277 kts 256°
2026-05-08 01:12 -25.63585 -49.03972 6358 ft 255 kts 288°
2026-05-08 01:13 -25.62833 -49.05709 5772 ft 250 kts 309°
2026-05-08 01:13 -25.61784 -49.07206 5367 ft 236 kts 313°
2026-05-08 01:13 -25.60830 -49.08570 5040 ft 212 kts 312°
2026-05-08 01:13 -25.59891 -49.09712 4743 ft 192 kts 316°
2026-05-08 01:14 -25.59006 -49.10714 4478 ft 174 kts 316°
2026-05-08 01:14 -25.58203 -49.11614 4276 ft 154 kts 317°
2026-05-08 01:14 -25.57487 -49.12413 4067 ft 137 kts 317°
2026-05-08 01:14 -25.56844 -49.13129 3864 ft 124 kts 317°
2026-05-08 01:15 -25.56223 -49.13820 3724 ft 129 kts 317°
2026-05-08 01:15 -25.55583 -49.14534 3564 ft 132 kts 316°
2026-05-08 01:15 -25.54934 -49.15257 3392 ft 133 kts 316°
2026-05-08 01:15 -25.54277 -49.15998 3213 ft 135 kts 316°
2026-05-08 01:16 -25.53606 -49.16744 3027 ft 137 kts 316°
2026-05-08 01:16 -25.52980 -49.17427 2999 ft 101 kts 315°
2026-05-08 01:16 -25.52708 -49.17729 2998 ft 27 kts 313°
2026-05-08 01:16 -25.52576 -49.17880 2998 ft 27 kts 315°
2026-05-08 01:17 -25.52527 -49.17950 2998 ft 5 kts 274°
2026-05-08 01:17 -25.52552 -49.17989 2998 ft 9 kts 199°
2026-05-08 01:17 -25.52631 -49.17991 2998 ft 13 kts 177°
2026-05-08 01:17 -25.52727 -49.17986 2998 ft 9 kts 177°
2026-05-08 01:18 -25.52804 -49.17981 2998 ft 12 kts 177°
2026-05-08 01:18 -25.52896 -49.17953 2998 ft 15 kts 142°
2026-05-08 01:18 -25.52974 -49.17863 2998 ft 16 kts 118°
2026-05-08 01:18 -25.52985 -49.17736 2998 ft 17 kts 90°
2026-05-08 01:19 -25.53012 -49.17613 2998 ft 17 kts 129°
2026-05-08 01:19 -25.53094 -49.17514 2998 ft 17 kts 136°
2026-05-08 01:19 -25.53166 -49.17436 2998 ft 4 kts 135°
2026-05-08 01:19 -25.53193 -49.17406 2998 ft 5 kts 136°
2026-05-08 01:20 -25.53225 -49.17373 2999 ft 6 kts 136°
2026-05-08 01:20 -25.53263 -49.17333 2998 ft 7 kts 136°
2026-05-08 01:20 -25.53305 -49.17287 2998 ft 9 kts 135°
2026-05-08 01:20 -25.53354 -49.17234 2998 ft 10 kts 134°
2026-05-08 01:21 -25.53403 -49.17178 2999 ft 10 kts 133°
2026-05-08 01:21 -25.53456 -49.17119 2999 ft 11 kts 135°
2026-05-08 01:21 -25.53511 -49.17057 2999 ft 11 kts 135°
2026-05-08 01:21 -25.53573 -49.17005 2999 ft 10 kts 182°
2026-05-08 01:22 -25.53614 -49.17043 2999 ft 3 kts 241°
2026-05-08 01:22 -25.53633 -49.17062 2999 ft 4 kts 215°
2026-05-08 01:22 -25.53664 -49.17084 2999 ft 3 kts 212°
2026-05-08 01:22 -25.53674 -49.17091 2999 ft 0 kts 212°